TimeCDT,TemperatureF,Dew PointF,Humidity,Sea Level PressureIn,VisibilityMPH,Wind Direction,Wind SpeedMPH,Gust SpeedMPH,PrecipitationIn,Events,Conditions,WindDirDegrees,DateUTC
12:15 AM,35.6,33.8,93,29.88,10.0,SE,8.1,-,N/A,,Clear,140,2012-10-15 05:15:00
12:35 AM,33.8,32.0,93,29.88,10.0,SE,8.1,-,N/A,,Clear,140,2012-10-15 05:35:00
12:55 AM,33.8,32.0,93,29.87,10.0,SSE,8.1,-,N/A,,Clear,160,2012-10-15 05:55:00
1:15 AM,32.0,32.0,100,29.87,10.0,South,6.9,-,N/A,,Clear,180,2012-10-15 06:15:00
1:35 AM,32.0,32.0,100,29.88,10.0,South,8.1,-,N/A,,Clear,170,2012-10-15 06:35:00
1:55 AM,32.0,32.0,100,29.87,10.0,SSE,9.2,-,N/A,,Clear,160,2012-10-15 06:55:00
2:15 AM,32.0,32.0,100,29.87,10.0,South,8.1,-,N/A,,Clear,170,2012-10-15 07:15:00
2:35 AM,32.0,32.0,100,29.86,10.0,SSE,9.2,-,N/A,,Clear,160,2012-10-15 07:35:00
2:55 AM,32.0,32.0,100,29.86,9.0,SSE,9.2,-,N/A,,Clear,160,2012-10-15 07:55:00
3:15 AM,32.0,32.0,100,29.86,10.0,SSE,6.9,-,N/A,,Clear,160,2012-10-15 08:15:00
3:35 AM,32.0,32.0,100,29.84,9.0,SSE,6.9,-,N/A,,Clear,150,2012-10-15 08:35:00
3:55 AM,32.0,32.0,100,29.84,8.0,SSE,5.8,-,N/A,,Clear,160,2012-10-15 08:55:00
4:15 AM,32.0,32.0,100,29.84,7.0,South,6.9,-,N/A,,Clear,180,2012-10-15 09:15:00
4:35 AM,32.0,32.0,100,29.83,8.0,SSE,8.1,-,N/A,,Clear,160,2012-10-15 09:35:00
4:55 AM,32.0,30.2,93,29.83,7.0,SSE,6.9,-,N/A,,Clear,150,2012-10-15 09:55:00
5:15 AM,30.2,30.2,100,29.83,6.0,South,6.9,-,N/A,,Clear,190,2012-10-15 10:15:00
5:35 AM,32.0,32.0,100,29.83,7.0,SSE,8.1,-,N/A,,Clear,160,2012-10-15 10:35:00
5:55 AM,32.0,32.0,100,29.83,7.0,SSE,6.9,-,N/A,,Clear,160,2012-10-15 10:55:00
6:15 AM,32.0,32.0,100,29.83,5.0,South,6.9,-,N/A,,Clear,180,2012-10-15 11:15:00
6:35 AM,32.0,32.0,100,29.82,7.0,SSE,8.1,-,N/A,,Clear,150,2012-10-15 11:35:00
6:55 AM,32.0,32.0,100,29.82,7.0,SSE,9.2,-,N/A,,Clear,160,2012-10-15 11:55:00
7:15 AM,32.0,32.0,100,29.81,7.0,SSE,8.1,-,N/A,,Clear,150,2012-10-15 12:15:00
7:35 AM,32.0,32.0,100,29.81,8.0,SSE,8.1,-,N/A,,Clear,160,2012-10-15 12:35:00
7:55 AM,32.0,32.0,100,29.80,7.0,SSE,9.2,-,N/A,,Clear,150,2012-10-15 12:55:00
8:15 AM,32.0,32.0,100,29.81,6.0,SSE,6.9,-,N/A,,Clear,160,2012-10-15 13:15:00
8:35 AM,35.6,33.8,93,29.81,5.0,SSE,10.4,-,N/A,,Clear,160,2012-10-15 13:35:00
8:55 AM,37.4,35.6,93,29.81,8.0,SSE,11.5,-,N/A,,Clear,160,2012-10-15 13:55:00
9:15 AM,37.4,35.6,93,29.80,9.0,SSE,11.5,-,N/A,,Clear,160,2012-10-15 14:15:00
9:35 AM,39.2,37.4,93,29.79,9.0,SSE,10.4,-,N/A,,Clear,160,2012-10-15 14:35:00
9:55 AM,39.2,37.4,93,29.79,9.0,South,6.9,-,N/A,,Scattered Clouds,170,2012-10-15 14:55:00
10:15 AM,41.0,37.4,87,29.78,9.0,SSE,15.0,-,N/A,,Scattered Clouds,160,2012-10-15 15:15:00
10:35 AM,41.0,37.4,87,29.77,9.0,SSE,17.3,-,N/A,,Mostly Cloudy,160,2012-10-15 15:35:00
10:55 AM,44.6,39.2,81,29.76,9.0,South,18.4,-,N/A,,Scattered Clouds,170,2012-10-15 15:55:00
11:15 AM,44.6,39.2,81,29.74,10.0,South,19.6,24.2,N/A,,Scattered Clouds,170,2012-10-15 16:15:00
11:35 AM,46.4,39.2,76,29.74,10.0,South,17.3,21.9,N/A,,Partly Cloudy,180,2012-10-15 16:35:00
11:55 AM,48.2,41.0,76,29.73,9.0,South,16.1,23.0,N/A,Rain,Light Rain,170,2012-10-15 16:55:00
12:15 PM,50.0,41.0,71,29.72,10.0,South,20.7,-,N/A,,Partly Cloudy,170,2012-10-15 17:15:00
12:35 PM,50.0,41.0,71,29.71,10.0,South,18.4,25.3,N/A,,Partly Cloudy,170,2012-10-15 17:35:00
12:55 PM,53.6,41.0,62,29.70,10.0,South,19.6,26.5,N/A,,Partly Cloudy,170,2012-10-15 17:55:00
1:15 PM,53.6,39.2,58,29.69,10.0,South,20.7,27.6,N/A,,Partly Cloudy,180,2012-10-15 18:15:00
1:35 PM,53.6,39.2,58,29.68,10.0,South,20.7,25.3,N/A,,Partly Cloudy,170,2012-10-15 18:35:00
1:55 PM,53.6,39.2,58,29.66,10.0,South,20.7,26.5,N/A,,Partly Cloudy,170,2012-10-15 18:55:00
2:35 PM,55.4,41.0,58,29.63,10.0,SSE,18.4,21.9,N/A,,Mostly Cloudy,160,2012-10-15 19:35:00
2:55 PM,55.4,41.0,58,29.61,10.0,SSE,19.6,24.2,N/A,,Scattered Clouds,160,2012-10-15 19:55:00
3:15 PM,57.2,39.2,51,29.61,10.0,SSE,19.6,26.5,N/A,,Scattered Clouds,160,2012-10-15 20:15:00
3:35 PM,57.2,39.2,51,29.60,10.0,South,23.0,28.8,N/A,,Scattered Clouds,170,2012-10-15 20:35:00
3:55 PM,59.0,39.2,48,29.60,10.0,South,20.7,28.8,N/A,,Scattered Clouds,170,2012-10-15 20:55:00
4:15 PM,62.6,41.0,45,29.59,10.0,South,18.4,28.8,N/A,,Partly Cloudy,170,2012-10-15 21:15:00
4:35 PM,60.8,39.2,45,29.58,10.0,South,18.4,29.9,N/A,,Partly Cloudy,170,2012-10-15 21:35:00
4:55 PM,59.0,39.2,48,29.57,10.0,SSE,20.7,26.5,N/A,,Clear,160,2012-10-15 21:55:00
5:15 PM,59.0,41.0,51,29.57,10.0,SSE,13.8,-,N/A,,Clear,160,2012-10-15 22:15:00
5:35 PM,59.0,41.0,51,29.56,10.0,SSE,13.8,20.7,N/A,,Clear,150,2012-10-15 22:35:00
5:55 PM,59.0,41.0,51,29.56,10.0,SSE,11.5,-,N/A,,Clear,150,2012-10-15 22:55:00
6:15 PM,57.2,41.0,55,29.55,10.0,SSE,8.1,-,N/A,,Clear,150,2012-10-15 23:15:00
6:35 PM,55.4,41.0,58,29.55,10.0,SE,10.4,-,N/A,,Clear,140,2012-10-15 23:35:00
6:55 PM,55.4,41.0,58,29.54,10.0,SSE,9.2,-,N/A,,Clear,150,2012-10-15 23:55:00
7:15 PM,55.4,41.0,58,29.54,10.0,SE,9.2,-,N/A,,Clear,140,2012-10-16 00:15:00
7:35 PM,53.6,41.0,62,29.54,10.0,SSE,8.1,-,N/A,,Clear,150,2012-10-16 00:35:00
7:55 PM,53.6,41.0,62,29.53,10.0,SSE,11.5,-,N/A,,Clear,150,2012-10-16 00:55:00
8:15 PM,53.6,41.0,62,29.53,10.0,SSE,10.4,-,N/A,,Clear,150,2012-10-16 01:15:00
8:35 PM,53.6,41.0,62,29.52,10.0,SSE,11.5,-,N/A,,Clear,150,2012-10-16 01:35:00
8:55 PM,51.8,41.0,67,29.53,10.0,SSE,6.9,-,N/A,,Clear,150,2012-10-16 01:55:00
9:15 PM,51.8,39.2,62,29.53,10.0,SSE,10.4,-,N/A,,Clear,160,2012-10-16 02:15:00
9:35 PM,51.8,39.2,62,29.53,10.0,South,8.1,-,N/A,,Clear,180,2012-10-16 02:35:00
9:55 PM,51.8,39.2,62,29.52,10.0,South,8.1,-,N/A,,Clear,180,2012-10-16 02:55:00
10:15 PM,50.0,39.2,66,29.52,10.0,South,6.9,-,N/A,,Clear,190,2012-10-16 03:15:00
10:35 PM,50.0,39.2,66,29.52,10.0,South,8.1,-,N/A,,Clear,180,2012-10-16 03:35:00
10:55 PM,48.2,39.2,71,29.51,10.0,South,5.8,-,N/A,,Clear,190,2012-10-16 03:55:00
11:15 PM,48.2,39.2,71,29.51,10.0,South,5.8,-,N/A,,Clear,190,2012-10-16 04:15:00
11:35 PM,46.4,39.2,76,29.51,10.0,South,5.8,-,N/A,,Clear,190,2012-10-16 04:35:00
11:55 PM,46.4,39.2,76,29.51,10.0,SSW,4.6,-,N/A,,Clear,210,2012-10-16 04:55:00